Location: ?
(35.3436°N, 139.3168°E)
Time: 04:24:55
(UTC+00:00)

ISS - Pass Details

Date: 23 January 2021
Orbit: 417 x 422 km, 51.6° (Epoch: 03 March)

Event Time Altitude Azimuth Distance (km) Brightness Sun altitude
Rises 09:09:28 0° 280° (W) 2,366 1.3 -14.0°
Reaches altitude 10° 09:12:53 10° 317° (NW) 1,506 -0.6 -14.7°
Maximum altitude 09:14:00 11° 337° (NNW) 1,434 -0.9 -14.9°
Drops below altitude 10° 09:15:05 10° 356° (N) 1,506 -1.0 -15.1°
Enters shadow 09:16:01 - 9° (N) 1,667 -0.9 -15.3°
